Weather History for Creston, BC

Change the Weather History Date:

Saturday, October 20, 2012

  Actual Average Record
Temperature  
Mean Temperature 42 °F -  
Max Temperature 50 °F - - ()
Min Temperature 33 °F - - ()
Degree Days  
Heating Degree Days 24    
Moisture  
Dew Point 33 °F    
Average Humidity 80    
Maximum Humidity 98    
Minimum Humidity 45    
Precipitation  
Precipitation 0.08 in - - ()
Sea Level Pressure  
Sea Level Pressure 29.81 in    
Wind  
Wind Speed 4 mph ()    
Max Wind Speed 8 mph    
Max Gust Speed 18 mph    
T = Trace of Precipitation, MM = Missing Value Source: Averaged Metar Reports

Daily Weather History Graph

Daily Weather History Graph

Search for Another Location

Airport:

Trip Planner

Search our weather history database for the weather conditions in past years. The results will help you decide how hot, cold, wet, or windy it might be!

Date:

Astronomy

Oct. 20, 2012 Rise Set
Actual Time 7:15 AM MST 5:45 PM MST
Civil Twilight 6:43 AM MST 6:17 PM MST
Nautical Twilight 6:06 AM MST 6:54 PM MST
Astronomical Twilight 5:29 AM MST 7:30 PM MST
Moon 1:10 PM MST (10/20) 10:22 PM MST (10/20)
Length of Visible Light 11h 34m
Length of Day
10h 29m
Waxing Crescent, 35% of the Moon is Illuminated
Oct 20
Waxing Crescent
Oct 21
First Quarter
Oct 29
Full
Nov 6
Last Quarter
Nov 13
New

Hourly Weather History & Observations

Time (MST) Temp. Windchill Dew Point Humidity Pressure Visibility Wind Dir Wind Speed Gust Speed Precip Events Conditions
12:00 AM 46.4 °F 43.5 °F 34.9 °F 64% 29.57 in - SSW 5.8 mph - N/A   Unknown
1:00 AM 43.5 °F 38.9 °F 39.7 °F 87% 29.62 in - NNW 8.1 mph 18.4 mph N/A   Unknown
2:00 AM 41.0 °F 39.0 °F 38.8 °F 92% 29.65 in - NNE 3.5 mph - N/A   Unknown
3:00 AM 43.3 °F 39.9 °F 39.2 °F 85% 29.67 in - NW 5.8 mph - N/A   Unknown
4:00 AM 35.8 °F 30.9 °F 33.8 °F 92% 29.75 in - East 5.8 mph - 0.07 in   Unknown
5:00 AM 40 °F - 33 °F 68% 29.73 in - East 8.1 mph - -  
5:00 AM 39.6 °F 34.0 °F 33.1 °F 78% 29.73 in - East 8.1 mph - N/A   Unknown
6:00 AM 47.3 °F - 28.0 °F 47% 29.71 in - ENE 2.3 mph - N/A   Unknown
7:00 AM 44.4 °F 40.5 °F 31.3 °F 60% 29.73 in - NW 6.9 mph - N/A   Unknown
8:00 AM 48.4 °F - 28.0 °F 45% 29.73 in - North 2.3 mph - N/A   Unknown
9:00 AM 45.9 °F - 29.7 °F 53% 29.73 in - WNW 2.3 mph - N/A   Unknown
10:00 AM 44.6 °F 43.1 °F 30.9 °F 59% 29.76 in - SE 3.5 mph - N/A   Unknown
11:00 AM 39 °F - 33 °F 70% 29.84 in - SE 1.2 mph - -  
11:00 AM 38.7 °F - 31.5 °F 75% 29.84 in - SE 1.2 mph - N/A   Unknown
12:00 PM 37.4 °F - 31.6 °F 80% 29.86 in - South 1.2 mph - N/A   Unknown
1:00 PM 35.6 °F 31.7 °F 31.3 °F 84% 29.85 in - East 4.6 mph - N/A   Unknown
3:00 PM 34.5 °F 30.4 °F 31.8 °F 90% 29.89 in - ENE 4.6 mph - N/A   Unknown
4:00 PM 34.3 °F 31.4 °F 31.6 °F 90% 29.90 in - East 3.5 mph - N/A   Unknown
5:00 PM 34 °F - 31 °F 86% 29.89 in - SE 1.2 mph - -  
5:00 PM 33.6 °F - 31.3 °F 91% 29.89 in - SE 1.2 mph - N/A   Unknown
6:00 PM 33.3 °F - 31.6 °F 94% 29.90 in - NNE 2.3 mph - N/A   Unknown
7:00 PM 34.3 °F 27.7 °F 31.6 °F 90% 29.90 in - East 8.1 mph - N/A   Unknown
8:00 PM 33.6 °F - 31.5 °F 92% 29.91 in - ENE 2.3 mph - N/A   Unknown
9:00 PM 35.1 °F 32.2 °F 33.4 °F 94% 29.91 in - ENE 3.5 mph - N/A   Unknown
10:00 PM 33.6 °F 30.6 °F 31.3 °F 91% 29.93 in - East 3.5 mph - N/A   Unknown
11:00 PM 34 °F - 33 °F 97% 29.94 in - ESE 3.5 mph - -  
11:00 PM 34.0 °F 31.0 °F 33.4 °F 98% 29.94 in - ESE 3.5 mph - N/A   Unknown